sat.trackr.live / text

‹ back to catalog

HAWK-12B

NORAD 64622 · 2025-138B

PAYLOAD ACTIVE UNKNOWN

§ Identity

Operator
Country
US
Launch date
2025-06-26
Launch site
RLLB
Launch vehicle
Mass (kg)
RCS (m²)

External: N2YO · Heavens-Above · Gunter

§ Orbital elements

Epoch: 2026-05-24T23:20:46.761216Z

Period
94.86 min
Inclination
97.4469°
Eccentricity
0.0011969
Mean motion
15.17999547 rev/d
Perigee alt
503.6 km
Apogee alt
520.1 km
Semi-major
6,890.0 km
B*
1.7045e-4
RAAN
148.4282°
Arg perigee
212.1569°
Mean anomaly
147.8936°
Rev number
5,034

§ Raw data

HAWK-12B1 64622U 25138B   26144.97276344  .00003403  00000+0  17045-3 0  99972 64622  97.4469 148.4282 0011969 212.1569 147.8936 15.17999547 50349

JSON: /api/v1/satellites/64622 · /tle

For live sub-satellite position, see the globe view (requires WebGL).

§ Visibility from observer

Set your observer location to see the next 7 days of passes ≥ 10°. The values pass through the URL so the page stays shareable.

No JS? Fill the form by hand. The geolocation button needs JavaScript.